| time (UTC) | temp F | wind direction | speed MPH | gust MPH | rain 1hr in | rain 24hr in | rain mn in | humidity % | barometer mb |
| 20260904195907 | 93 | 227 | 5.0 | 7.0 | 0.00 | 0.00 | 0.00 | 58 | 1013.3 |
| 20260904195404 | 93 | 279 | 1.0 | 2.0 | 0.00 | 0.00 | 0.00 | 58 | 1013.4 |
| 20260904194858 | 93 | 274 | 3.0 | 4.0 | 0.00 | 0.00 | 0.00 | 58 | 1013.6 |
| 20260904194358 | 93 | 260 | 5.0 | 7.0 | 0.00 | 0.00 | 0.00 | 58 | 1013.6 |
| 20260904193854 | 93 | 235 | 9.0 | 11.0 | 0.00 | 0.00 | 0.00 | 58 | 1014.0 |
| 20260904193349 | 93 | 281 | 6.0 | 7.0 | 0.00 | 0.00 | 0.00 | 58 | 1013.4 |
| 20260904192844 | 94 | 281 | 6.0 | 8.0 | 0.00 | 0.00 | 0.00 | 57 | 1014.0 |
| 20260904192339 | 93 | 300 | 7.0 | 8.0 | 0.00 | 0.00 | 0.00 | 56 | 1013.9 |
| 20260904191836 | 94 | 289 | 6.0 | 7.0 | 0.00 | 0.00 | 0.00 | 56 | 1013.9 |
| 20260904191332 | 95 | 269 | 11.0 | 13.0 | 0.00 | 0.00 | 0.00 | 54 | 1014.3 |
| 20260904190828 | 94 | 283 | 4.0 | 6.0 | 0.00 | 0.00 | 0.00 | 56 | 1014.0 |
| 20260904190324 | 94 | 214 | 4.0 | 6.0 | 0.00 | 0.00 | 0.00 | 56 | 1014.1 |
| 20260904185820 | 94 | 243 | 9.0 | 13.0 | 0.00 | 0.00 | 0.00 | 54 | 1014.2 |
| 20260904185316 | 94 | 278 | 8.0 | 11.0 | 0.00 | 0.00 | 0.00 | 55 | 1014.3 |
| 20260904184815 | 94 | 247 | 5.0 | 6.0 | 0.00 | 0.00 | 0.00 | 54 | 1014.3 |
| 20260904184310 | 95 | 272 | 5.0 | 7.0 | 0.00 | 0.00 | 0.00 | 54 | 1014.2 |
| 20260904183806 | 95 | 254 | 11.0 | 11.0 | 0.00 | 0.00 | 0.00 | 54 | 1014.4 |
| 20260904183305 | 95 | 266 | 7.0 | 9.0 | 0.00 | 0.00 | 0.00 | 53 | 1014.3 |
| 20260904182800 | 94 | 245 | 8.0 | 10.0 | 0.00 | 0.00 | 0.00 | 53 | 1014.7 |
| 20260904182255 | 94 | 5 | 5.0 | 7.0 | 0.00 | 0.00 | 0.00 | 54 | 1014.4 |
| 20260904181751 | 94 | 8 | 5.0 | 8.0 | 0.00 | 0.00 | 0.00 | 55 | 1014.7 |
| 20260904181251 | 94 | 274 | 5.0 | 6.0 | 0.00 | 0.00 | 0.00 | 57 | 1014.5 |
| 20260904180746 | 94 | 308 | 4.0 | 4.0 | 0.00 | 0.00 | 0.00 | 55 | 1014.5 |
| 20260904180242 | 94 | 242 | 2.0 | 4.0 | 0.00 | 0.00 | 0.00 | 55 | 1014.5 |
| 20260904175741 | 93 | 321 | 3.0 | 3.0 | 0.00 | 0.00 | 0.00 | 55 | 1014.6 |
| 20260904175239 | 94 | 270 | 6.0 | 7.0 | 0.00 | 0.00 | 0.00 | 55 | 1014.7 |
| 20260904174734 | 93 | 322 | 3.0 | 3.0 | 0.00 | 0.00 | 0.00 | 58 | 1014.6 |
| 20260904174230 | 93 | 268 | 6.0 | 8.0 | 0.00 | 0.00 | 0.00 | 56 | 1014.6 |
| 20260904173726 | 95 | 260 | 7.0 | 8.0 | 0.00 | 0.00 | 0.00 | 55 | 1014.6 |
| 20260904173226 | 95 | 246 | 4.0 | 6.0 | 0.00 | 0.00 | 0.00 | 54 | 1014.4 |
| 20260904172723 | 94 | 253 | 4.0 | 6.0 | 0.00 | 0.00 | 0.00 | 54 | 1014.6 |
| 20260904172221 | 93 | 346 | 4.0 | 6.0 | 0.00 | 0.00 | 0.00 | 54 | 1014.6 |
| 20260904171717 | 93 | 291 | 3.0 | 6.0 | 0.00 | 0.00 | 0.00 | 55 | 1014.8 |
| 20260904171212 | 94 | 279 | 8.0 | 9.0 | 0.00 | 0.00 | 0.00 | 55 | 1014.7 |
| 20260904170708 | 94 | 290 | 3.0 | 3.0 | 0.00 | 0.00 | 0.00 | 55 | 1014.9 |
| 20260904170204 | 93 | 257 | 6.0 | 7.0 | 0.00 | 0.00 | 0.00 | 56 | 1014.8 |
| 20260904165703 | 93 | 267 | 5.0 | 7.0 | 0.00 | 0.00 | 0.00 | 57 | 1014.7 |
| 20260904165202 | 93 | 306 | 4.0 | 6.0 | 0.00 | 0.00 | 0.00 | 57 | 1014.7 |
| 20260904164658 | 94 | 273 | 3.0 | 4.0 | 0.00 | 0.00 | 0.00 | 59 | 1014.9 |
| 20260904164157 | 94 | 350 | 1.0 | 2.0 | 0.00 | 0.00 | 0.00 | 57 | 1014.9 |
| 20260904163654 | 93 | 342 | 2.0 | 4.0 | 0.00 | 0.00 | 0.00 | 58 | 1014.8 |
| 20260904163149 | 92 | 285 | 4.0 | 4.0 | 0.00 | 0.00 | 0.00 | 59 | 1015.0 |
| 20260904162648 | 92 | 271 | 4.0 | 4.0 | 0.00 | 0.00 | 0.00 | 60 | 1014.9 |
| 20260904162143 | 92 | 261 | 2.0 | 4.0 | 0.00 | 0.00 | 0.00 | 60 | 1015.0 |
| 20260904161639 | 92 | 252 | 11.0 | 13.0 | 0.00 | 0.00 | 0.00 | 59 | 1014.9 |
| 20260904161133 | 92 | 261 | 3.0 | 3.0 | 0.00 | 0.00 | 0.00 | 60 | 1014.9 |
| 20260904160629 | 91 | 322 | 2.0 | 3.0 | 0.00 | 0.00 | 0.00 | 59 | 1015.1 |
| 20260904160125 | 91 | 234 | 5.0 | 6.0 | 0.00 | 0.00 | 0.00 | 61 | 1015.0 |
| 20260904155620 | 91 | 247 | 4.0 | 7.0 | 0.00 | 0.00 | 0.00 | 63 | 1015.1 |
| 20260904155114 | 91 | 273 | 2.0 | 2.0 | 0.00 | 0.00 | 0.00 | 62 | 1015.2 |
| 20260904154608 | 90 | 199 | 4.0 | 4.0 | 0.00 | 0.00 | 0.00 | 63 | 1015.0 |
| 20260904154102 | 90 | 330 | 2.0 | 3.0 | 0.00 | 0.00 | 0.00 | 64 | 1015.0 |
| 20260904153601 | 90 | 291 | 3.0 | 3.0 | 0.00 | 0.00 | 0.00 | 64 | 1014.8 |
| 20260904153053 | 89 | 227 | 3.0 | 4.0 | 0.00 | 0.00 | 0.00 | 64 | 1014.9 |
| 20260904152548 | 89 | 271 | 3.0 | 4.0 | 0.00 | 0.00 | 0.00 | 66 | 1014.9 |
| 20260904152043 | 89 | 300 | 3.0 | 4.0 | 0.00 | 0.00 | 0.00 | 64 | 1014.8 |
| 20260904151538 | 88 | 282 | 3.0 | 4.0 | 0.00 | 0.00 | 0.00 | 66 | 1014.9 |
| 20260904151038 | 89 | 353 | 0.0 | 1.0 | 0.00 | 0.00 | 0.00 | 65 | 1014.8 |
| 20260904150538 | 90 | 290 | 5.0 | 7.0 | 0.00 | 0.00 | 0.00 | 63 | 1014.8 |
| 20260904150033 | 87 | 328 | 3.0 | 3.0 | 0.00 | 0.00 | 0.00 | 67 | 1014.9 |
| 20260904145532 | 87 | 254 | 4.0 | 4.0 | 0.00 | 0.00 | 0.00 | 68 | 1014.8 |
| 20260904145027 | 88 | 340 | 2.0 | 4.0 | 0.00 | 0.00 | 0.00 | 68 | 1014.7 |
| 20260904144523 | 88 | 288 | 2.0 | 3.0 | 0.00 | 0.00 | 0.00 | 67 | 1014.5 |
| 20260904144019 | 86 | 358 | 0.0 | 0.0 | 0.00 | 0.00 | 0.00 | 69 | 1014.7 |
| 20260904143514 | 86 | 326 | 4.0 | 4.0 | 0.00 | 0.00 | 0.00 | 71 | 1014.7 |
| 20260904143011 | 86 | 306 | 2.0 | 2.0 | 0.00 | 0.00 | 0.00 | 69 | 1014.8 |
| 20260904142507 | 85 | 267 | 2.0 | 3.0 | 0.00 | 0.00 | 0.00 | 73 | 1014.6 |
| 20260904142007 | 84 | 299 | 1.0 | 1.0 | 0.00 | 0.00 | 0.00 | 73 | 1014.6 |
| 20260904141502 | 84 | 299 | 2.0 | 2.0 | 0.00 | 0.00 | 0.00 | 74 | 1014.5 |
| 20260904140958 | 84 | 236 | 2.0 | 3.0 | 0.00 | 0.00 | 0.00 | 74 | 1014.5 |
| 20260904140453 | 83 | 316 | 2.0 | 3.0 | 0.00 | 0.00 | 0.00 | 76 | 1014.5 |
| 20260904135952 | 83 | 260 | 3.0 | 3.0 | 0.00 | 0.00 | 0.00 | 76 | 1014.4 |
| 20260904135452 | 82 | 271 | 4.0 | 4.0 | 0.00 | 0.00 | 0.00 | 76 | 1014.4 |
| 20260904134948 | 82 | 214 | 5.0 | 6.0 | 0.00 | 0.00 | 0.00 | 77 | 1014.5 |
| 20260904134448 | 82 | 239 | 5.0 | 6.0 | 0.00 | 0.00 | 0.00 | 78 | 1014.5 |
| 20260904133943 | 81 | 301 | 1.0 | 2.0 | 0.00 | 0.00 | 0.00 | 78 | 1014.6 |
| 20260904133437 | 81 | 282 | 3.0 | 4.0 | 0.00 | 0.00 | 0.00 | 79 | 1014.4 |
| 20260904132933 | 80 | 311 | 3.0 | 4.0 | 0.00 | 0.00 | 0.00 | 81 | 1014.4 |
| 20260904132428 | 80 | 274 | 4.0 | 4.0 | 0.00 | 0.00 | 0.00 | 81 | 1014.2 |
| 20260904131927 | 79 | 259 | 3.0 | 4.0 | 0.00 | 0.00 | 0.00 | 81 | 1014.4 |
| 20260904131423 | 79 | 312 | 4.0 | 4.0 | 0.00 | 0.00 | 0.00 | 82 | 1014.3 |
| 20260904130919 | 79 | 293 | 2.0 | 3.0 | 0.00 | 0.00 | 0.00 | 82 | 1014.1 |
| 20260904130417 | 78 | 299 | 3.0 | 4.0 | 0.00 | 0.00 | 0.00 | 82 | 1014.0 |
| 20260904125912 | 78 | 278 | 3.0 | 4.0 | 0.00 | 0.00 | 0.00 | 82 | 1013.9 |
| 20260904125409 | 78 | 236 | 3.0 | 3.0 | 0.00 | 0.00 | 0.00 | 83 | 1014.0 |
| 20260904124908 | 78 | 344 | 2.0 | 3.0 | 0.00 | 0.00 | 0.00 | 83 | 1013.6 |
| 20260904124405 | 77 | 297 | 1.0 | 2.0 | 0.00 | 0.00 | 0.00 | 84 | 1013.6 |
| 20260904123900 | 77 | 269 | 3.0 | 3.0 | 0.00 | 0.00 | 0.00 | 85 | 1013.6 |
| 20260904123355 | 77 | 280 | 2.0 | 3.0 | 0.00 | 0.00 | 0.00 | 85 | 1013.7 |
| 20260904122851 | 77 | 250 | 2.0 | 2.0 | 0.00 | 0.00 | 0.00 | 85 | 1013.6 |
| 20260904122349 | 77 | 323 | 1.0 | 2.0 | 0.00 | 0.00 | 0.00 | 85 | 1013.9 |
| 20260904121844 | 77 | 302 | 2.0 | 2.0 | 0.00 | 0.00 | 0.00 | 85 | 1013.6 |
| 20260904121341 | 76 | 256 | 1.0 | 2.0 | 0.00 | 0.00 | 0.00 | 86 | 1013.5 |
| 20260904120837 | 76 | 290 | 1.0 | 2.0 | 0.00 | 0.00 | 0.00 | 86 | 1013.4 |
| 20260904120333 | 76 | 275 | 1.0 | 2.0 | 0.00 | 0.00 | 0.00 | 86 | 1013.6 |
| 20260904115827 | 76 | 325 | 1.0 | 1.0 | 0.00 | 0.00 | 0.00 | 87 | 1013.6 |
| 20260904115323 | 76 | 293 | 1.0 | 1.0 | 0.00 | 0.00 | 0.00 | 87 | 1013.5 |
| 20260904114823 | 76 | 327 | 1.0 | 1.0 | 0.00 | 0.00 | 0.00 | 87 | 1013.4 |
| 20260904114318 | 76 | 337 | 0.0 | 0.0 | 0.00 | 0.00 | 0.00 | 88 | 1013.4 |
| 20260904113813 | 76 | 334 | 0.0 | 1.0 | 0.00 | 0.00 | 0.00 | 88 | 1013.3 |
| 20260904113312 | 75 | 329 | 1.0 | 1.0 | 0.00 | 0.00 | 0.00 | 88 | 1013.2 |
| 20260904112807 | 75 | 333 | 1.0 | 1.0 | 0.00 | 0.00 | 0.00 | 89 | 1013.3 |
| 20260904112305 | 75 | 343 | 0.0 | 1.0 | 0.00 | 0.00 | 0.00 | 89 | 1013.3 |
| 20260904111758 | 76 | 349 | 0.0 | 0.0 | 0.00 | 0.00 | 0.00 | 88 | 1013.2 |
| 20260904111254 | 76 | 351 | 0.0 | 0.0 | 0.00 | 0.00 | 0.00 | 88 | 1013.1 |
| 20260904110749 | 76 | 339 | 0.0 | 0.0 | 0.00 | 0.00 | 0.00 | 89 | 1013.1 |
| 20260904110248 | 76 | 345 | 0.0 | 0.0 | 0.00 | 0.00 | 0.00 | 88 | 1013.1 |
| 20260904105743 | 76 | 324 | 0.0 | 1.0 | 0.00 | 0.00 | 0.00 | 88 | 1013.1 |
| 20260904105238 | 76 | 338 | 1.0 | 1.0 | 0.00 | 0.00 | 0.00 | 88 | 1013.2 |
| 20260904104733 | 76 | 345 | 1.0 | 1.0 | 0.00 | 0.00 | 0.00 | 88 | 1013.0 |
| 20260904104229 | 76 | 40 | 1.0 | 2.0 | 0.00 | 0.00 | 0.00 | 88 | 1013.0 |
| 20260904103726 | 76 | 318 | 1.0 | 2.0 | 0.00 | 0.00 | 0.00 | 88 | 1013.1 |
| 20260904103220 | 76 | 324 | 1.0 | 1.0 | 0.00 | 0.00 | 0.00 | 89 | 1013.2 |
| 20260904102716 | 76 | 337 | 0.0 | 0.0 | 0.00 | 0.00 | 0.00 | 90 | 1013.4 |
| 20260904102211 | 76 | 345 | 0.0 | 0.0 | 0.00 | 0.00 | 0.00 | 90 | 1013.2 |
| 20260904101708 | 76 | 345 | 0.0 | 0.0 | 0.00 | 0.00 | 0.00 | 90 | 1013.4 |
| 20260904101203 | 77 | 345 | 0.0 | 0.0 | 0.00 | 0.00 | 0.00 | 89 | 1013.3 |
| 20260904100654 | 77 | 340 | 0.0 | 0.0 | 0.00 | 0.00 | 0.00 | 87 | 1013.2 |
| 20260904100149 | 77 | 338 | 0.0 | 0.0 | 0.00 | 0.00 | 0.00 | 87 | 1013.3 |
| 20260904095649 | 77 | 337 | 0.0 | 0.0 | 0.00 | 0.00 | 0.00 | 86 | 1013.2 |
| 20260904095148 | 77 | 332 | 0.0 | 0.0 | 0.00 | 0.00 | 0.00 | 87 | 1013.2 |
| 20260904094644 | 77 | 333 | 1.0 | 1.0 | 0.00 | 0.00 | 0.00 | 87 | 1013.2 |
| 20260904094138 | 77 | 304 | 1.0 | 2.0 | 0.00 | 0.00 | 0.00 | 87 | 1013.3 |
| 20260904093636 | 77 | 340 | 0.0 | 0.0 | 0.00 | 0.00 | 0.00 | 87 | 1013.3 |
| 20260904093135 | 77 | 338 | 0.0 | 0.0 | 0.00 | 0.00 | 0.00 | 87 | 1013.3 |
| 20260904092631 | 77 | 325 | 1.0 | 1.0 | 0.00 | 0.00 | 0.00 | 86 | 1013.2 |
| 20260904092127 | 77 | 336 | 0.0 | 0.0 | 0.00 | 0.00 | 0.00 | 86 | 1013.2 |
| 20260904091623 | 77 | 340 | 0.0 | 0.0 | 0.00 | 0.00 | 0.00 | 87 | 1013.3 |
| 20260904091123 | 77 | 323 | 1.0 | 1.0 | 0.00 | 0.00 | 0.00 | 87 | 1013.3 |
| 20260904090618 | 77 | 312 | 2.0 | 2.0 | 0.00 | 0.00 | 0.00 | 86 | 1013.3 |
| 20260904090114 | 78 | 283 | 2.0 | 2.0 | 0.00 | 0.00 | 0.00 | 86 | 1013.3 |
| 20260904085609 | 78 | 314 | 2.0 | 2.0 | 0.00 | 0.00 | 0.00 | 86 | 1013.2 |
| 20260904085108 | 78 | 337 | 0.0 | 0.0 | 0.00 | 0.00 | 0.00 | 86 | 1012.9 |
| 20260904084604 | 78 | 306 | 1.0 | 2.0 | 0.00 | 0.00 | 0.00 | 86 | 1013.0 |
| 20260904084100 | 78 | 330 | 1.0 | 1.0 | 0.00 | 0.00 | 0.00 | 86 | 1012.8 |
| 20260904083556 | 78 | 335 | 1.0 | 1.0 | 0.00 | 0.00 | 0.00 | 86 | 1012.7 |
| 20260904083052 | 78 | 330 | 2.0 | 2.0 | 0.00 | 0.00 | 0.00 | 86 | 1012.7 |
| 20260904082547 | 78 | 321 | 1.0 | 2.0 | 0.00 | 0.00 | 0.00 | 86 | 1012.7 |
| 20260904082042 | 78 | 215 | 4.0 | 4.0 | 0.00 | 0.00 | 0.00 | 86 | 1012.7 |
| 20260904081537 | 78 | 299 | 4.0 | 4.0 | 0.00 | 0.00 | 0.00 | 86 | 1012.6 |
| 20260904081033 | 78 | 235 | 2.0 | 3.0 | 0.00 | 0.00 | 0.00 | 86 | 1012.7 |
| 20260904080528 | 78 | 300 | 2.0 | 2.0 | 0.00 | 0.00 | 0.00 | 87 | 1012.7 |
| 20260904080024 | 78 | 210 | 4.0 | 4.0 | 0.00 | 0.00 | 0.00 | 87 | 1012.5 |
| 20260904075520 | 78 | 279 | 3.0 | 4.0 | 0.00 | 0.00 | 0.00 | 87 | 1012.6 |
| 20260904075015 | 78 | 67 | 2.0 | 3.0 | 0.00 | 0.00 | 0.00 | 87 | 1012.7 |
| 20260904074509 | 78 | 250 | 3.0 | 3.0 | 0.00 | 0.00 | 0.00 | 87 | 1012.6 |
| 20260904074008 | 78 | 290 | 2.0 | 2.0 | 0.00 | 0.00 | 0.00 | 87 | 1012.6 |
| 20260904073504 | 78 | 246 | 3.0 | 3.0 | 0.00 | 0.00 | 0.00 | 87 | 1012.7 |
| 20260904073000 | 78 | 243 | 3.0 | 3.0 | 0.00 | 0.00 | 0.00 | 88 | 1012.7 |
| 20260904072456 | 78 | 229 | 4.0 | 4.0 | 0.00 | 0.00 | 0.00 | 88 | 1012.7 |
| 20260904071955 | 78 | 264 | 3.0 | 3.0 | 0.00 | 0.00 | 0.00 | 87 | 1012.8 |
| 20260904071452 | 78 | 224 | 1.0 | 2.0 | 0.00 | 0.00 | 0.00 | 87 | 1013.1 |
| 20260904070951 | 79 | 224 | 4.0 | 4.0 | 0.00 | 0.00 | 0.00 | 87 | 1013.0 |
| 20260904070450 | 79 | 238 | 3.0 | 3.0 | 0.00 | 0.00 | 0.00 | 87 | 1013.3 |
| 20260904065945 | 79 | 208 | 3.0 | 4.0 | 0.00 | 0.00 | 0.00 | 87 | 1013.2 |
| 20260904065441 | 79 | 196 | 4.0 | 4.0 | 0.00 | 0.00 | 0.00 | 86 | 1013.3 |
| 20260904064936 | 79 | 148 | 2.0 | 2.0 | 0.00 | 0.00 | 0.00 | 86 | 1013.2 |
| 20260904064432 | 79 | 341 | 2.0 | 2.0 | 0.00 | 0.00 | 0.00 | 86 | 1013.2 |
| 20260904063927 | 79 | 81 | 2.0 | 3.0 | 0.00 | 0.00 | 0.00 | 86 | 1013.3 |
| 20260904063424 | 79 | 218 | 3.0 | 4.0 | 0.00 | 0.00 | 0.00 | 86 | 1013.3 |
| 20260904062919 | 79 | 285 | 2.0 | 2.0 | 0.00 | 0.00 | 0.00 | 86 | 1013.5 |
| 20260904062415 | 79 | 230 | 2.0 | 3.0 | 0.00 | 0.00 | 0.00 | 86 | 1013.7 |
| 20260904061910 | 79 | 293 | 2.0 | 2.0 | 0.00 | 0.00 | 0.00 | 86 | 1013.7 |
| 20260904061407 | 80 | 341 | 1.0 | 1.0 | 0.00 | 0.00 | 0.00 | 86 | 1013.7 |
| 20260904060903 | 80 | 0 | 1.0 | 2.0 | 0.00 | 0.00 | 0.00 | 86 | 1013.5 |
| 20260904060358 | 80 | 305 | 2.0 | 2.0 | 0.00 | 0.00 | 0.00 | 86 | 1013.7 |
| 20260904055853 | 80 | 333 | 1.0 | 1.0 | 0.00 | 0.00 | 0.00 | 86 | 1013.7 |
| 20260904055348 | 80 | 337 | 0.0 | 1.0 | 0.00 | 0.00 | 0.00 | 86 | 1013.5 |
| 20260904054844 | 80 | 216 | 2.0 | 2.0 | 0.00 | 0.00 | 0.00 | 85 | 1013.7 |
| 20260904054340 | 80 | 237 | 2.0 | 2.0 | 0.00 | 0.00 | 0.00 | 86 | 1013.5 |
| 20260904053835 | 80 | 329 | 1.0 | 1.0 | 0.00 | 0.00 | 0.00 | 86 | 1013.9 |
| 20260904053334 | 80 | 0 | 1.0 | 1.0 | 0.00 | 0.00 | 0.00 | 86 | 1013.6 |
| 20260904052830 | 80 | 319 | 2.0 | 2.0 | 0.00 | 0.00 | 0.00 | 86 | 1013.5 |
| 20260904052327 | 80 | 226 | 4.0 | 4.0 | 0.00 | 0.00 | 0.00 | 86 | 1013.5 |
| 20260904051823 | 80 | 316 | 2.0 | 2.0 | 0.00 | 0.00 | 0.00 | 86 | 1013.5 |
| 20260904051318 | 80 | 27 | 2.0 | 3.0 | 0.00 | 0.00 | 0.00 | 85 | 1013.4 |
| 20260904050813 | 81 | 329 | 2.0 | 2.0 | 0.00 | 0.00 | 0.00 | 85 | 1013.3 |
| 20260904050310 | 81 | 232 | 3.0 | 3.0 | 0.00 | 0.00 | 0.00 | 85 | 1013.3 |
| 20260904045805 | 81 | 261 | 1.0 | 2.0 | 0.00 | 0.00 | 0.00 | 84 | 1013.5 |
| 20260904045307 | 81 | 311 | 2.0 | 2.0 | 0.00 | 0.00 | 0.00 | 84 | 1013.4 |
| 20260904044759 | 82 | 303 | 2.0 | 3.0 | 0.00 | 0.00 | 0.00 | 83 | 1013.4 |
| 20260904044256 | 82 | 295 | 2.0 | 2.0 | 0.00 | 0.00 | 0.00 | 83 | 1013.6 |
| 20260904043752 | 82 | 230 | 2.0 | 3.0 | 0.00 | 0.00 | 0.00 | 83 | 1013.4 |
| 20260904043249 | 82 | 341 | 1.0 | 2.0 | 0.00 | 0.00 | 0.00 | 83 | 1013.5 |
| 20260904042743 | 82 | 345 | 2.0 | 2.0 | 0.00 | 0.00 | 0.00 | 82 | 1013.4 |
| 20260904042239 | 82 | 317 | 1.0 | 2.0 | 0.00 | 0.00 | 0.00 | 82 | 1013.5 |
| 20260904041739 | 82 | 217 | 2.0 | 2.0 | 0.00 | 0.00 | 0.00 | 82 | 1013.5 |
| 20260904041235 | 82 | 230 | 1.0 | 2.0 | 0.00 | 0.00 | 0.00 | 82 | 1013.6 |
| 20260904040731 | 82 | 307 | 2.0 | 2.0 | 0.00 | 0.00 | 0.00 | 82 | 1013.6 |
| 20260904040226 | 83 | 348 | 1.0 | 1.0 | 0.00 | 0.00 | 0.00 | 81 | 1013.6 |
| 20260904035722 | 83 | 352 | 0.0 | 0.0 | 0.00 | 0.00 | 0.00 | 81 | 1013.6 |
| 20260904035217 | 83 | 355 | 2.0 | 2.0 | 0.00 | 0.00 | 0.00 | 81 | 1013.6 |
| 20260904034716 | 83 | 305 | 2.0 | 3.0 | 0.00 | 0.00 | 0.00 | 81 | 1013.6 |
| 20260904034212 | 83 | 15 | 1.0 | 1.0 | 0.00 | 0.00 | 0.00 | 81 | 1013.7 |
| 20260904033708 | 83 | 342 | 1.0 | 2.0 | 0.00 | 0.00 | 0.00 | 81 | 1013.6 |
| 20260904033205 | 83 | 325 | 1.0 | 1.0 | 0.00 | 0.00 | 0.00 | 81 | 1013.6 |
| 20260904032700 | 83 | 31 | 1.0 | 1.0 | 0.00 | 0.00 | 0.00 | 80 | 1013.6 |
| 20260904032200 | 83 | 344 | 1.0 | 1.0 | 0.00 | 0.00 | 0.00 | 80 | 1013.4 |
| 20260904031700 | 83 | 158 | 1.0 | 2.0 | 0.00 | 0.00 | 0.00 | 80 | 1013.3 |
| 20260904031155 | 84 | 37 | 2.0 | 2.0 | 0.00 | 0.00 | 0.00 | 79 | 1013.3 |
| 20260904030651 | 84 | 197 | 3.0 | 3.0 | 0.00 | 0.00 | 0.00 | 79 | 1013.2 |
| 20260904030146 | 84 | 224 | 3.0 | 4.0 | 0.00 | 0.00 | 0.00 | 79 | 1013.4 |
| 20260904025642 | 84 | 29 | 3.0 | 3.0 | 0.00 | 0.00 | 0.00 | 79 | 1013.3 |
| 20260904025136 | 84 | 79 | 2.0 | 2.0 | 0.00 | 0.00 | 0.00 | 79 | 1013.1 |
| 20260904024627 | 84 | 2 | 1.0 | 1.0 | 0.00 | 0.00 | 0.00 | 79 | 1013.3 |
| 20260904024122 | 84 | 45 | 1.0 | 1.0 | 0.00 | 0.00 | 0.00 | 79 | 1013.2 |
| 20260904023618 | 83 | 46 | 2.0 | 3.0 | 0.00 | 0.00 | 0.00 | 80 | 1013.0 |
| 20260904023113 | 84 | 164 | 4.0 | 4.0 | 0.00 | 0.00 | 0.00 | 79 | 1013.0 |
| 20260904022608 | 84 | 115 | 3.0 | 4.0 | 0.00 | 0.00 | 0.00 | 79 | 1012.9 |
| 20260904022105 | 84 | 270 | 3.0 | 3.0 | 0.00 | 0.00 | 0.00 | 79 | 1013.2 |
| 20260904021600 | 84 | 10 | 1.0 | 2.0 | 0.00 | 0.00 | 0.00 | 78 | 1013.1 |
| 20260904021055 | 84 | 9 | 1.0 | 2.0 | 0.00 | 0.00 | 0.00 | 78 | 1013.2 |
| 20260904020550 | 84 | 267 | 2.0 | 2.0 | 0.00 | 0.00 | 0.00 | 78 | 1013.1 |
| 20260904020045 | 84 | 336 | 2.0 | 3.0 | 0.00 | 0.00 | 0.00 | 78 | 1013.0 |
| 20260904015539 | 84 | 297 | 1.0 | 2.0 | 0.00 | 0.00 | 0.00 | 78 | 1013.0 |
| 20260904015038 | 84 | 331 | 2.0 | 2.0 | 0.00 | 0.00 | 0.00 | 78 | 1013.1 |
| 20260904014532 | 84 | 297 | 1.0 | 2.0 | 0.00 | 0.00 | 0.00 | 78 | 1013.1 |
| 20260904014028 | 85 | 8 | 2.0 | 2.0 | 0.00 | 0.00 | 0.00 | 78 | 1013.0 |
| 20260904013524 | 85 | 352 | 1.0 | 1.0 | 0.00 | 0.00 | 0.00 | 78 | 1012.8 |
| 20260904013021 | 85 | 354 | 2.0 | 2.0 | 0.00 | 0.00 | 0.00 | 77 | 1012.7 |
| 20260904012520 | 85 | 108 | 2.0 | 3.0 | 0.00 | 0.00 | 0.00 | 77 | 1012.8 |
| 20260904012014 | 86 | 348 | 1.0 | 1.0 | 0.00 | 0.00 | 0.00 | 76 | 1012.7 |
| 20260904011509 | 86 | 353 | 1.0 | 1.0 | 0.00 | 0.00 | 0.00 | 76 | 1012.6 |
| 20260904011004 | 86 | 184 | 3.0 | 3.0 | 0.00 | 0.00 | 0.00 | 76 | 1012.7 |
| 20260904010501 | 86 | 7 | 1.0 | 2.0 | 0.00 | 0.00 | 0.00 | 75 | 1012.7 |
| 20260904010000 | 86 | 35 | 1.0 | 2.0 | 0.00 | 0.00 | 0.00 | 75 | 1012.5 |
| 20260904005456 | 87 | 350 | 1.0 | 1.0 | 0.00 | 0.00 | 0.00 | 74 | 1012.4 |
| 20260904004951 | 87 | 151 | 2.0 | 3.0 | 0.00 | 0.00 | 0.00 | 74 | 1012.5 |
| 20260904004448 | 87 | 19 | 1.0 | 1.0 | 0.00 | 0.00 | 0.00 | 73 | 1012.5 |
| 20260904003947 | 88 | 241 | 2.0 | 3.0 | 0.00 | 0.00 | 0.00 | 72 | 1012.4 |
| 20260904003443 | 88 | 0 | 1.0 | 2.0 | 0.00 | 0.00 | 0.00 | 71 | 1012.2 |
| 20260904002938 | 89 | 345 | 1.0 | 3.0 | 0.00 | 0.00 | 0.00 | 70 | 1012.2 |
| 20260904002435 | 89 | 42 | 3.0 | 3.0 | 0.00 | 0.00 | 0.00 | 70 | 1012.3 |
| 20260904001933 | 89 | 269 | 2.0 | 2.0 | 0.00 | 0.00 | 0.00 | 69 | 1012.1 |
| 20260904001429 | 89 | 336 | 2.0 | 3.0 | 0.00 | 0.00 | 0.00 | 69 | 1012.2 |
| 20260904000924 | 89 | 170 | 4.0 | 4.0 | 0.00 | 0.00 | 0.00 | 69 | 1012.1 |
| 20260904000425 | 90 | 119 | 2.0 | 3.0 | 0.00 | 0.00 | 0.00 | 69 | 1012.1 |
| 20260903235919 | 90 | 315 | 3.0 | 4.0 | 0.00 | 0.00 | 0.00 | 68 | 1012.0 |
| 20260903235415 | 91 | 256 | 4.0 | 4.0 | 0.00 | 0.00 | 0.00 | 67 | 1012.0 |
| 20260903234914 | 91 | 229 | 4.0 | 4.0 | 0.00 | 0.00 | 0.00 | 67 | 1012.0 |
| 20260903234410 | 91 | 227 | 6.0 | 7.0 | 0.00 | 0.00 | 0.00 | 66 | 1012.0 |
| 20260903233906 | 91 | 3 | 1.0 | 2.0 | 0.00 | 0.00 | 0.00 | 66 | 1012.0 |
| 20260903233402 | 91 | 163 | 4.0 | 4.0 | 0.00 | 0.00 | 0.00 | 66 | 1011.9 |
| 20260903232901 | 91 | 156 | 2.0 | 2.0 | 0.00 | 0.00 | 0.00 | 66 | 1011.6 |
| 20260903232356 | 91 | 211 | 4.0 | 4.0 | 0.00 | 0.00 | 0.00 | 66 | 1011.8 |
| 20260903231855 | 91 | 280 | 3.0 | 3.0 | 0.00 | 0.00 | 0.00 | 65 | 1011.8 |
| 20260903231351 | 91 | 316 | 2.0 | 2.0 | 0.00 | 0.00 | 0.00 | 65 | 1012.0 |
| 20260903230846 | 91 | 305 | 2.0 | 2.0 | 0.00 | 0.00 | 0.00 | 65 | 1011.9 |
| 20260903230341 | 91 | 338 | 3.0 | 4.0 | 0.00 | 0.00 | 0.00 | 65 | 1011.7 |
| 20260903225837 | 91 | 195 | 4.0 | 4.0 | 0.00 | 0.00 | 0.00 | 64 | 1011.7 |
| 20260903225328 | 92 | 235 | 4.0 | 6.0 | 0.00 | 0.00 | 0.00 | 63 | 1011.7 |
| 20260903224824 | 93 | 216 | 9.0 | 9.0 | 0.00 | 0.00 | 0.00 | 61 | 1011.6 |
| 20260903224320 | 93 | 232 | 3.0 | 4.0 | 0.00 | 0.00 | 0.00 | 59 | 1011.6 |
| 20260903223816 | 93 | 225 | 7.0 | 8.0 | 0.00 | 0.00 | 0.00 | 60 | 1011.5 |
| 20260903223314 | 94 | 242 | 8.0 | 10.0 | 0.00 | 0.00 | 0.00 | 59 | 1011.4 |
| 20260903222809 | 93 | 201 | 7.0 | 9.0 | 0.00 | 0.00 | 0.00 | 59 | 1011.3 |
| 20260903222308 | 93 | 208 | 11.0 | 15.0 | 0.00 | 0.00 | 0.00 | 59 | 1011.1 |
| 20260903221802 | 94 | 230 | 9.0 | 11.0 | 0.00 | 0.00 | 0.00 | 58 | 1011.3 |
| 20260903221301 | 94 | 190 | 6.0 | 11.0 | 0.00 | 0.00 | 0.00 | 58 | 1011.3 |
| 20260903220800 | 95 | 255 | 5.0 | 6.0 | 0.00 | 0.00 | 0.00 | 58 | 1011.5 |
| 20260903220255 | 94 | 189 | 6.0 | 9.0 | 0.00 | 0.00 | 0.00 | 58 | 1012.0 |
| 20260903215753 | 94 | 207 | 10.0 | 11.0 | 0.00 | 0.00 | 0.00 | 58 | 1012.0 |
| 20260903215249 | 94 | 337 | 5.0 | 7.0 | 0.00 | 0.00 | 0.00 | 56 | 1012.0 |
| 20260903214747 | 94 | 241 | 5.0 | 6.0 | 0.00 | 0.00 | 0.00 | 57 | 1012.5 |
| 20260903214239 | 95 | 270 | 4.0 | 6.0 | 0.00 | 0.00 | 0.00 | 56 | 1012.5 |
| 20260903213738 | 96 | 298 | 3.0 | 4.0 | 0.00 | 0.00 | 0.00 | 55 | 1012.6 |
| 20260903213233 | 95 | 244 | 4.0 | 6.0 | 0.00 | 0.00 | 0.00 | 56 | 1012.8 |
| 20260903212724 | 95 | 219 | 7.0 | 10.0 | 0.00 | 0.00 | 0.00 | 55 | 1012.8 |
| 20260903212220 | 95 | 251 | 4.0 | 4.0 | 0.00 | 0.00 | 0.00 | 55 | 1012.9 |
| 20260903211718 | 95 | 244 | 6.0 | 8.0 | 0.00 | 0.00 | 0.00 | 56 | 1013.0 |
| 20260903211215 | 95 | 268 | 8.0 | 9.0 | 0.00 | 0.00 | 0.00 | 55 | 1013.1 |
| 20260903210711 | 95 | 270 | 4.0 | 6.0 | 0.00 | 0.00 | 0.00 | 55 | 1013.1 |
| 20260903210207 | 95 | 296 | 6.0 | 7.0 | 0.00 | 0.00 | 0.00 | 55 | 1013.2 |
| 20260903205706 | 95 | 236 | 5.0 | 6.0 | 0.00 | 0.00 | 0.00 | 55 | 1013.0 |
| 20260903205205 | 96 | 275 | 5.0 | 7.0 | 0.00 | 0.00 | 0.00 | 51 | 1013.1 |
| 20260903204701 | 95 | 214 | 5.0 | 6.0 | 0.00 | 0.00 | 0.00 | 52 | 1013.2 |
| 20260903204157 | 95 | 232 | 4.0 | 6.0 | 0.00 | 0.00 | 0.00 | 54 | 1013.3 |
| 20260903203652 | 96 | 255 | 3.0 | 3.0 | 0.00 | 0.00 | 0.00 | 55 | 1013.1 |
| 20260903203148 | 96 | 237 | 7.0 | 9.0 | 0.00 | 0.00 | 0.00 | 54 | 1013.1 |
| 20260903202642 | 95 | 267 | 7.0 | 9.0 | 0.00 | 0.00 | 0.00 | 56 | 1013.3 |
| 20260903202138 | 95 | 247 | 3.0 | 3.0 | 0.00 | 0.00 | 0.00 | 55 | 1013.3 |
| 20260903201632 | 95 | 280 | 6.0 | 8.0 | 0.00 | 0.00 | 0.00 | 55 | 1013.4 |
| 20260903201131 | 95 | 210 | 6.0 | 8.0 | 0.00 | 0.00 | 0.00 | 54 | 1013.2 |
| 20260903200626 | 95 | 234 | 4.0 | 4.0 | 0.00 | 0.00 | 0.00 | 52 | 1013.2 |
| 20260903200121 | 95 | 227 | 6.0 | 7.0 | 0.00 | 0.00 | 0.00 | 52 | 1013.2 |